Preview of NWS' New Version of Forecast
This preview is not operational and should not be used for support decisions.

Regional Weather Roundup (RWR)

Issued by National Weather Service (NWS)

                            
000
ASUS46 KSEW 180910
RWRWA 

WASHINGTON REGIONAL WEATHER ROUNDUP
NATIONAL WEATHER SERVICE SEATTLE WA
200 AM PDT TUE JUN 18 2019

NOTE:"FAIR" INDICATES FEW OR NO CLOUDS BELOW 12,000 FEET WITH NO 
SIGNIFICANT WEATHER AND/OR OBSTRUCTIONS TO VISIBILITY.

WAZ507-509-555>559-181000-
SEATTLE, TACOMA, EVERETT, AND VICINITY
  
CITY           SKY/WX    TMP DP  RH WIND       PRES   REMARKS
EVERETT        CLOUDY    56  53  90 N5        30.16R                  
BOEING FIELD   CLOUDY    62  54  74 S5        30.15R                  
RENTON         CLOUDY    63  56  78 CALM      30.14S                  
SEATAC AIRPORT CLOUDY    61  53  75 W6        30.16R                  
JBLM-MCCHORD   CLOUDY    59  58  99 SW5       30.16R                  
PUYALLUP       CLOUDY    59  57  94 CALM      30.16S                  
BREMERTON      CLOUDY    57  54  89 VRB5      30.15S                  
JBLM-FT LEWIS  CLOUDY    58  58  99 S10       30.15S                  
TACOMA NARROWS CLOUDY    57  53  86 SW6       30.16R                  
$$
 
WAZ001-503-506-510-514-515-181000-
NORTH INTERIOR
  
CITY           SKY/WX    TMP DP  RH WIND       PRES   REMARKS
BELLINGHAM     CLOUDY    60  53  77 S9        30.10S                  
FRIDAY HARBOR  CLOUDY    59  52  77 W12G22    30.12S                  
EASTSOUND      CLOUDY    59  54  82 S10       30.10R                  
PORT ANGELES   CLEAR     56  53  90 W12       30.15S                  
EDIZ HOOK      FAIR      55  52  88 W17       30.15S                  
PORT TOWNSEND  CLOUDY    59  54  82 W7        30.13S                  
NAS WHIDBEY    CLOUDY    58  52  80 SW13      30.18F                  
ARLINGTON      CLOUDY    58  54  86 N8        30.16R                  
BURLINGTON     CLOUDY    57  54  88 SW5       30.14S                  
$$
 
WAZ020-022-039-040-504-511-512-181000-
SOUTHWEST INTERIOR
  
CITY           SKY/WX    TMP DP  RH WIND       PRES   REMARKS
SHELTON        CLOUDY    57  52  83 SW13      30.13R                  
OLYMPIA        CLOUDY    55  52  89 S6        30.16R                  
CHEHALIS       MOCLDY    57  55  94 SW7       30.19R                  
KELSO          CLOUDY    60  55  83 NW6       30.19F                  
VANCOUVER      CLEAR     60  54  80 NW5       30.18R                  
SCAPPOOSE, OR  MOCLDY    59  54  83 CALM      30.17S                  
PORTLAND, OR   CLEAR     61  54  77 N6        30.18S                  
$$
 
WAZ021-516-517-181000-
WASHINGTON COAST
  
CITY           SKY/WX    TMP DP  RH WIND       PRES   REMARKS
FORKS          CLOUDY    54  53  97 NW6       30.21R                  
HOQUIAM        CLOUDY    56  56 100 W12       30.20S                  
ASTORIA, OR    CLOUDY    55  54  96 SW3       30.21F                  
$$
 
WAZ019-023-024-040-567>569-181000-
CASCADE MOUNTAINS AND COLUMBIA GORGE
  
CITY           SKY/WX    TMP DP  RH WIND       PRES   REMARKS
STAMPEDE PASS  FOG       52  49  89 VRB7      30.16S VSB 1/4          
TROUTDALE, OR  CLEAR     60  54  80 CALM      30.18R                  
HOOD RIVER, OR SUNNY     63  52  67 NW14G20   30.09S                  
THE DALLES, OR CLEAR     67  53  61 NW14G23   30.03R                  
$$

WAZ026-027-041>044-520-521-181000-
EAST SLOPES
  
CITY           SKY/WX    TMP DP  RH WIND       PRES   REMARKS
OMAK           MOCLDY    70  45  40 NW8       29.90S                  
WENATCHEE      CLOUDY    70  45  40 W15       29.95F                  
ELLENSBURG     CLOUDY    66  50  56 NW15G31   30.03R                  
YAKIMA         PTCLDY    70  49  47 NW10      30.00R                  
SUNNYSIDE ARPT SUNNY     68  51  54 W6        29.98                   
YAKIMA TC      FAIR      66  48  51 CALM      30.00S                  
$$

WAZ028-034-035-181000-
COLUMBIA BASIN
  
CITY           SKY/WX    TMP DP  RH WIND       PRES   REMARKS
EPHRATA        MOCLDY    72  42  34 VRB6      29.92R                  
MOSES LAKE     MOCLDY    71  45  39 S6        29.94R                  
PASCO          PTCLDY    67  54  63 SE3       29.96R                  
RICHLAND ARPT  MOSUNNY   69  50  49 CALM      29.96R                  
HERMISTON, OR  PTCLDY    71  52  50 SW15      29.98S                  
$$

WAZ036>038-181000-
NORTHEAST WASHINGTON
  
CITY           SKY/WX    TMP DP  RH WIND       PRES   REMARKS
SPOKANE GEIGER PTCLDY    66  48  52 S7        29.93F                  
SPOKANE FELTS  PTCLDY    71  48  43 SW8       29.93S                  
FAIRCHILD AFB  PTCLDY    60  49  66 SW9       29.94F                  
COEURDALENE,ID MOCLDY    65  53  65 S6        29.96S                  
DEER PARK      PTCLDY    54  50  86 CALM      29.93S                  
$$

WAZ029>033-181000-
SOUTHEAST WASHINGTON
  
CITY           SKY/WX    TMP DP  RH WIND       PRES   REMARKS
PULLMAN        MOCLDY    66  48  52 W12       30.01S                  
LEWISTON, ID   CLOUDY    69  50  50 MISG      29.95R                  
WALLA WALLA    PTCLDY    68  51  54 SE10      30.01R                  
PENDLETON, OR  PTCLDY    67  49  52 SW9       30.02S                  
$$